Location: Newark
(51.0500°N, 12.4500°E)
Time: 14:42:24
(UTC+00:00)

Vanguard 1 - Pass Details

Date: 25 February 2020
Orbit: 649 x 3833 km, 34.2° (Epoch: 09 April)

Event Time Altitude Azimuth Distance (km) Brightness Sun altitude
Rises 11:45:29 0° 271° (W) 7,117 14.5 29.6°
Reaches altitude 10° 11:52:07 10° 260° (W) 5,541 14.2 29.4°
Maximum altitude 12:02:32 23° 217° (SW) 3,506 14.3 29.2°
Drops below altitude 10° 12:09:35 10° 170° (S) 3,599 14.2 28.9°
Sets 12:12:45 0° 155° (SSE) 4,185 14.0 28.8°
